Location: Carabito
(9.8355°N, 67.9249°W)
Time: 00:26:58
(UTC+00:00)

NOSS 3-2 (A) - Pass Details

Date: 23 May 2024
Orbit: 704 x 1502 km, 63.4° (Epoch: 12 April)

Event Time Altitude Azimuth Distance (km) Brightness Sun altitude
Exits shadow 08:53:38 - 180° (S) 2,557 5.5 -18.1°
Reaches altitude 10° 08:54:40 10° 175° (S) 2,182 5.1 -17.9°
Maximum altitude 08:59:00 32° 112° (ESE) 1,189 4.4 -16.9°
Drops below altitude 10° 09:03:22 10° 49° (NE) 2,208 6.6 -15.9°
Sets 09:05:59 0° 39° (NE) 3,186 7.4 -15.3°
